When you browse on this site, cookies collect data to enhance your experience and personalize the content and advertising you see.
Visit our Privacy Policy to learn more. By continuing to use the site, you agree to this use of cookies and data.
  • In Hungary
  • List of Countries
  • For 7 days
  • Water Temperature
  • Weather Map
  • News
  • Weather Widgets
  • user-avatar
    Login

    Hourly Weather Zakadychnoe

    Today, 23 October, Wednesday

    Time Temperature Precipitation Wind Pressure Humidity
    00:00 +15°C° 0 mm 0 mps 764 mmHg 57%
    01:00 +16°C° 0 mm 1 mps 764 mmHg 59%
    02:00 +15°C° 0 mm 1 mps 764 mmHg 60%
    03:00 +14°C° 0 mm 1 mps 764 mmHg 61%
    04:00 +14°C° 0 mm 1 mps 764 mmHg 62%
    05:00 +14°C° 0 mm 1 mps 764 mmHg 63%
    06:00 +13°C° 0 mm 1 mps 764 mmHg 65%
    07:00 +14°C° 0 mm 1 mps 764 mmHg 62%
    08:00 +15°C° 0 mm 1 mps 764 mmHg 59%
    09:00 +16°C° 0 mm 1 mps 765 mmHg 56%
    10:00 +18°C° 0 mm 1 mps 764 mmHg 53%
    11:00 +20°C° 0 mm 1 mps 764 mmHg 49%
    12:00 +21°C° 0 mm 1 mps 764 mmHg 45%
    13:00 +21°C° 0 mm 1 mps 764 mmHg 44%
    14:00 +22°C° 0 mm 1 mps 764 mmHg 42%
    15:00 +22°C° 0 mm 1 mps 763 mmHg 41%
    16:00 +21°C° 0 mm 1 mps 763 mmHg 44%
    17:00 +20°C° 0 mm 1 mps 763 mmHg 46%
    18:00 +17°C° 0 mm 0 mps 763 mmHg 49%
    19:00 +17°C° 0 mm 0 mps 763 mmHg 51%
    20:00 +16°C° 0 mm 0 mps 763 mmHg 53%
    21:00 +18°C° 0 mm 1 mps 763 mmHg 54%
    22:00 +16°C° 0 mm 1 mps 763 mmHg 56%
    23:00 +16°C° 0 mm 1 mps 763 mmHg 57%

    Tomorrow, 24 October, Thursday

    Time Temperature Precipitation Wind Pressure Humidity
    00:00 +16°C° 0 mm 1 mps 763 mmHg 59%
    01:00 +15°C° 0 mm 1 mps 763 mmHg 60%
    02:00 +15°C° 0 mm 1 mps 763 mmHg 62%
    03:00 +15°C° 0 mm 1 mps 763 mmHg 64%
    04:00 +13°C° 0 mm 0 mps 763 mmHg 64%
    05:00 +13°C° 0 mm 0 mps 762 mmHg 65%
    06:00 +13°C° 0 mm 0 mps 762 mmHg 65%
    07:00 +14°C° 0 mm 0 mps 762 mmHg 62%
    08:00 +15°C° 0 mm 0 mps 763 mmHg 60%
    09:00 +15°C° 0 mm 0 mps 763 mmHg 57%
    10:00 +19°C° 0 mm 1 mps 763 mmHg 53%
    11:00 +19°C° 0 mm 2 mps 762 mmHg 48%
    12:00 +20°C° 0 mm 2 mps 762 mmHg 44%
    13:00 +21°C° 0 mm 2 mps 762 mmHg 43%
    14:00 +21°C° 0 mm 2 mps 762 mmHg 42%
    15:00 +21°C° 0 mm 2 mps 761 mmHg 41%
    16:00 +20°C° 0 mm 2 mps 761 mmHg 44%
    17:00 +19°C° 0 mm 2 mps 761 mmHg 48%
    18:00 +19°C° 0 mm 1 mps 761 mmHg 52%
    19:00 +18°C° 0 mm 1 mps 761 mmHg 54%
    20:00 +18°C° 0 mm 1 mps 761 mmHg 56%
    21:00 +16°C° 0 mm 1 mps 762 mmHg 57%
    22:00 +16°C° 0 mm 1 mps 761 mmHg 58%
    23:00 +16°C° 0 mm 1 mps 761 mmHg 58%

    Day after tomorrow, 25 October, Friday

    Time Temperature Precipitation Wind Pressure Humidity
    00:00 +16°C° 0 mm 1 mps 761 mmHg 59%
    01:00 +15°C° 0 mm 0 mps 761 mmHg 59%
    02:00 +14°C° 0 mm 0 mps 761 mmHg 59%
    03:00 +14°C° 0 mm 0 mps 761 mmHg 59%
    04:00 +14°C° 0 mm 0 mps 761 mmHg 61%
    05:00 +13°C° 0 mm 0 mps 761 mmHg 62%
    06:00 +14°C° 0 mm 1 mps 761 mmHg 64%
    07:00 +15°C° 0 mm 1 mps 761 mmHg 61%
    08:00 +15°C° 0 mm 1 mps 761 mmHg 58%
    09:00 +16°C° 0 mm 1 mps 761 mmHg 55%
    10:00 +18°C° 0 mm 2 mps 761 mmHg 51%
    11:00 +19°C° 0 mm 2 mps 761 mmHg 46%
    12:00 +20°C° 0 mm 2 mps 761 mmHg 42%
    13:00 +20°C° 0 mm 2 mps 761 mmHg 40%
    14:00 +21°C° 0 mm 2 mps 761 mmHg 38%
    15:00 +21°C° 0 mm 3 mps 761 mmHg 36%
    16:00 +20°C° 0 mm 3 mps 761 mmHg 39%
    17:00 +19°C° 0 mm 3 mps 761 mmHg 42%
    18:00 +18°C° 0 mm 3 mps 761 mmHg 45%
    19:00 +17°C° 0 mm 3 mps 761 mmHg 48%
    20:00 +16°C° 0 mm 3 mps 761 mmHg 51%
    21:00 +16°C° 0 mm 3 mps 761 mmHg 53%
    22:00 +14°C° 0 mm 3 mps 761 mmHg 56%
    23:00 +14°C° 0 mm 3 mps 761 mmHg 58%

    26 October, Saturday

    Time Temperature Precipitation Wind Pressure Humidity
    00:00 +13°C° 0 mm 3 mps 761 mmHg 60%
    01:00 +13°C° 0 mm 3 mps 761 mmHg 61%
    02:00 +12°C° 0 mm 3 mps 761 mmHg 63%
    03:00 +12°C° 0 mm 3 mps 761 mmHg 64%
    04:00 +11°C° 0 mm 3 mps 762 mmHg 64%
    05:00 +11°C° 0 mm 3 mps 762 mmHg 64%
    06:00 +11°C° 0 mm 3 mps 762 mmHg 65%
    07:00 +12°C° 0 mm 3 mps 762 mmHg 61%
    08:00 +12°C° 0 mm 3 mps 762 mmHg 57%
    09:00 +13°C° 0 mm 3 mps 762 mmHg 54%
    10:00 +15°C° 0 mm 4 mps 763 mmHg 49%
    11:00 +18°C° 0 mm 4 mps 763 mmHg 44%
    12:00 +19°C° 0 mm 4 mps 763 mmHg 39%
    13:00 +20°C° 0 mm 4 mps 763 mmHg 37%
    14:00 +20°C° 0 mm 4 mps 762 mmHg 36%
    15:00 +20°C° 0 mm 3 mps 762 mmHg 35%
    16:00 +19°C° 0 mm 3 mps 762 mmHg 38%
    17:00 +18°C° 0 mm 3 mps 762 mmHg 41%
    18:00 +17°C° 0 mm 2 mps 762 mmHg 44%
    19:00 +16°C° 0 mm 2 mps 763 mmHg 45%
    20:00 +16°C° 0 mm 2 mps 763 mmHg 47%
    21:00 +15°C° 0 mm 2 mps 763 mmHg 48%
    22:00 +14°C° 0 mm 2 mps 763 mmHg 50%
    23:00 +14°C° 0 mm 2 mps 763 mmHg 51%

    27 October, Sunday

    Time Temperature Precipitation Wind Pressure Humidity
    00:00 +13°C° 0 mm 2 mps 763 mmHg 53%
    01:00 +13°C° 0 mm 1 mps 763 mmHg 54%
    02:00 +13°C° 0 mm 1 mps 763 mmHg 56%
    03:00 +12°C° 0 mm 1 mps 763 mmHg 57%
    04:00 +12°C° 0 mm 1 mps 763 mmHg 59%
    05:00 +12°C° 0 mm 1 mps 763 mmHg 60%
    06:00 +11°C° 0 mm 1 mps 763 mmHg 62%
    07:00 +12°C° 0 mm 1 mps 763 mmHg 60%
    08:00 +13°C° 0 mm 1 mps 763 mmHg 58%
    09:00 +14°C° 0 mm 1 mps 763 mmHg 56%
    10:00 +16°C° 0 mm 1 mps 763 mmHg 54%
    11:00 +17°C° 0 mm 2 mps 763 mmHg 51%
    12:00 +19°C° 0 mm 2 mps 763 mmHg 49%
    13:00 +20°C° 0 mm 2 mps 762 mmHg 47%
    14:00 +20°C° 0 mm 2 mps 762 mmHg 45%
    15:00 +21°C° 0 mm 2 mps 761 mmHg 43%
    16:00 +20°C° 0 mm 2 mps 761 mmHg 47%
    17:00 +18°C° 0 mm 2 mps 761 mmHg 52%
    18:00 +17°C° 0 mm 2 mps 761 mmHg 56%
    19:00 +16°C° 0 mm 1 mps 761 mmHg 59%
    20:00 +16°C° 0 mm 1 mps 761 mmHg 61%
    21:00 +15°C° 0 mm 1 mps 761 mmHg 63%
    22:00 +15°C° 0 mm 1 mps 760 mmHg 64%
    23:00 +15°C° 0 mm 1 mps 760 mmHg 65%

    28 October, Monday

    Time Temperature Precipitation Wind Pressure Humidity
    00:00 +14°C° 0 mm 1 mps 760 mmHg 66%
    01:00 +14°C° 0 mm 1 mps 760 mmHg 68%
    02:00 +14°C° 0 mm 1 mps 760 mmHg 69%
    03:00 +13°C° 0 mm 1 mps 759 mmHg 71%
    04:00 +13°C° 0 mm 1 mps 759 mmHg 73%
    05:00 +13°C° 0 mm 1 mps 759 mmHg 74%
    06:00 +12°C° 0 mm 0 mps 759 mmHg 76%
    07:00 +13°C° 0 mm 0 mps 759 mmHg 72%
    08:00 +14°C° 0 mm 1 mps 759 mmHg 69%
    09:00 +15°C° 0 mm 1 mps 759 mmHg 65%
    10:00 +18°C° 0 mm 1 mps 759 mmHg 60%
    11:00 +19°C° 0 mm 1 mps 758 mmHg 54%
    12:00 +19°C° 0 mm 2 mps 758 mmHg 49%
    13:00 +20°C° 0 mm 2 mps 758 mmHg 47%
    14:00 +20°C° 0 mm 2 mps 757 mmHg 45%
    15:00 +21°C° 0 mm 2 mps 757 mmHg 43%
    16:00 +19°C° 0 mm 2 mps 757 mmHg 46%
    17:00 +18°C° 0 mm 2 mps 757 mmHg 50%
    18:00 +17°C° 0 mm 2 mps 757 mmHg 53%
    19:00 +16°C° 0 mm 2 mps 757 mmHg 54%
    20:00 +16°C° 0 mm 2 mps 757 mmHg 55%
    21:00 +16°C° 0 mm 2 mps 757 mmHg 56%
    22:00 +15°C° 0 mm 2 mps 757 mmHg 58%
    23:00 +15°C° 0 mm 1 mps 756 mmHg 59%

    29 October, Tuesday

    Time Temperature Precipitation Wind Pressure Humidity
    00:00 +15°C° 0 mm 1 mps 756 mmHg 60%
    01:00 +14°C° 0 mm 1 mps 756 mmHg 62%
    02:00 +14°C° 0 mm 1 mps 756 mmHg 64%
    03:00 +14°C° 0 mm 1 mps 756 mmHg 65%
    04:00 +13°C° 0 mm 1 mps 756 mmHg 67%
    05:00 +13°C° 0 mm 1 mps 756 mmHg 68%
    06:00 +13°C° 0 mm 1 mps 756 mmHg 70%
    07:00 +14°C° 0 mm 1 mps 756 mmHg 67%
    08:00 +14°C° 0 mm 1 mps 756 mmHg 64%
    09:00 +15°C° 0 mm 1 mps 756 mmHg 61%
    10:00 +18°C° 0 mm 1 mps 756 mmHg 57%
    11:00 +18°C° 0 mm 2 mps 756 mmHg 52%
    12:00 +19°C° 0 mm 3 mps 756 mmHg 47%
    13:00 +20°C° 0 mm 3 mps 755 mmHg 46%
    14:00 +20°C° 0 mm 3 mps 755 mmHg 44%
    15:00 +20°C° 0 mm 4 mps 755 mmHg 43%
    16:00 +19°C° 0 mm 4 mps 755 mmHg 48%
    17:00 +18°C° 0 mm 3 mps 755 mmHg 53%
    18:00 +16°C° 0 mm 3 mps 755 mmHg 59%
    19:00 +16°C° 0 mm 3 mps 755 mmHg 62%
    20:00 +15°C° 0 mm 2 mps 755 mmHg 66%
    21:00 +15°C° 0 mm 2 mps 756 mmHg 70%
    22:00 +13°C° 0 mm 3 mps 756 mmHg 72%
    23:00 +13°C° 0 mm 3 mps 756 mmHg 75%
    Show more